Location: The Saddle
(36.8333°N, 80.3417°W)
Time: 08:18:30
(UTC-05:00)

S-56A Canister/Altair - Pass Details

Date: 11 December 2023
Orbit: 640 x 2488 km, 38.9° (Epoch: 25 February)

Event Time Altitude Azimuth Distance (km) Brightness Sun altitude
Rises 15:14:26 0° 282° (WNW) 2,934 11.0 16.7°
Reaches altitude 10° 15:16:47 10° 273° (W) 2,033 10.4 16.4°
Maximum altitude 15:20:54 35° 207° (SSW) 1,106 9.8 15.8°
Drops below altitude 10° 15:25:45 10° 142° (SE) 2,407 10.2 15.1°
Sets 15:28:47 0° 134° (SE) 3,567 10.9 14.7°
